Ashtabula, OH

9:28 PM EDT on September 25, 2017 (GMT -0400)
Ashtabula County

Weather History for KHZY - March, 2013

Change the Weather History Date:

Sunday, March 10, 2013

  Actual Average (KGKJ) Record (KGKJ)
Temperature  
Mean Temperature 55 °F -  
Max Temperature 66 °F 43 °F 67 °F (1977)
Min Temperature 44 °F 21 °F -7 °F (1984)
Degree Days  
Heating Degree Days 10    
Growing Degree Days 5 (Base 50)    
Moisture  
Dew Point 30 °F    
Average Humidity 38    
Maximum Humidity 49    
Minimum Humidity 31    
Precipitation  
Precipitation 0.00 in - - ()
Sea Level Pressure  
Sea Level Pressure 30.02 in    
Wind  
Wind Speed 12 mph (South)    
Max Wind Speed 18 mph    
Max Gust Speed 25 mph    
Visibility 10 miles    
Events      
Averages and records for this station are not official NWS values.
T = Trace of Precipitation, MM = Missing Value Source: NWS Daily Summary

Daily Weather History Graph

Daily Weather History Graph

Search for Another Location

Airport or City:

Trip Planner

Search our weather history database for the weather conditions in past years. The results will help you decide how hot, cold, wet, or windy it might be!

Date:

Astronomy

Mar. 10, 2013 Rise Set
Actual Time 7:42 AM EDT 7:23 PM EDT
Civil Twilight 7:14 AM EDT 7:51 PM EDT
Nautical Twilight 6:42 AM EDT 8:23 PM EDT
Astronomical Twilight 6:10 AM EDT 8:56 PM EDT
Moon 6:42 AM EDT (3/10) 6:30 PM EDT (3/10)
Length of Visible Light 12h 36m
Length of Day
11h 41m
Waning Crescent, 2% of the Moon is Illuminated
Mar 10
Waning Crescent
Mar 11
New
Mar 19
First Quarter
Mar 27
Full
Apr 3
Last Quarter

Hourly Weather History & Observations

Time (EDT) Temp. Windchill Dew Point Humidity Pressure Visibility Wind Dir Wind Speed Gust Speed Precip Events Conditions
12:53 AM 44.1 °F 37.7 °F 26.1 °F 49% 30.13 in 10.0 mi SSE 12.7 mph 21.9 mph 0.00 in   Overcast
1:53 AM 45.0 °F 39.7 °F 24.1 °F 44% 30.12 in 10.0 mi SSE 10.4 mph - N/A   Overcast
3:53 AM 45.0 °F 40.6 °F 24.1 °F 44% 30.11 in 10.0 mi SSE 8.1 mph - N/A   Overcast
4:53 AM 45.0 °F 40.6 °F 24.1 °F 44% 30.08 in 10.0 mi SSE 8.1 mph - N/A   Clear
5:53 AM 46.0 °F 41.4 °F 23.0 °F 40% 30.08 in 10.0 mi SSE 9.2 mph - N/A   Scattered Clouds
6:53 AM 45.0 °F 40.6 °F 24.1 °F 44% 30.09 in 10.0 mi SSE 8.1 mph - N/A   Mostly Cloudy
8:53 AM 46.9 °F - 24.1 °F 41% 30.09 in 10.0 mi South 13.8 mph - N/A   Mostly Cloudy
9:53 AM 48.0 °F - 27.0 °F 44% 30.09 in 10.0 mi South 11.5 mph 18.4 mph 0.00 in   Overcast
10:53 AM 52.0 °F - 30.0 °F 43% 30.09 in 10.0 mi South 12.7 mph - N/A   Clear
11:53 AM 57.0 °F - 32.0 °F 39% 30.07 in 10.0 mi South 13.8 mph 20.7 mph N/A   Partly Cloudy
12:53 PM 60.1 °F - 33.1 °F 36% 30.05 in 10.0 mi South 18.4 mph 25.3 mph N/A   Clear
1:53 PM 63.0 °F - 35.1 °F 35% 30.01 in 10.0 mi South 16.1 mph 24.2 mph N/A   Clear
2:53 PM 66.0 °F - 36.0 °F 33% 29.98 in 10.0 mi SSW 12.7 mph 20.7 mph N/A   Clear
3:53 PM 66.0 °F - 36.0 °F 33% 29.97 in 10.0 mi South 12.7 mph 20.7 mph N/A   Clear
4:53 PM 66.0 °F - 37.0 °F 34% 29.97 in 10.0 mi SSW 9.2 mph 20.7 mph N/A   Clear
5:53 PM 66.9 °F - 35.1 °F 31% 29.97 in 10.0 mi South 15.0 mph 21.9 mph N/A   Clear
6:53 PM 63.0 °F - 35.1 °F 35% 29.95 in 10.0 mi SSE 10.4 mph - N/A   Clear
7:53 PM 62.1 °F - 35.1 °F 37% 29.97 in 10.0 mi South 6.9 mph - N/A   Clear
8:53 PM 61.0 °F - 33.1 °F 35% 29.96 in 10.0 mi South 8.1 mph - N/A   Clear
9:53 PM 59.0 °F - 30.9 °F 35% 29.95 in 10.0 mi SSE 11.5 mph 18.4 mph N/A   Clear
10:53 PM 57.0 °F - 30.0 °F 36% 29.94 in 10.0 mi SSE 13.8 mph - N/A   Clear
11:53 PM 57.0 °F - 30.0 °F 36% 29.91 in 10.0 mi SSE 16.1 mph 23.0 mph N/A   Clear
12:53 AM 57.0 °F - 30.0 °F 36% 29.91 in 10.0 mi SSE 16.1 mph - N/A   Clear